Location: Moscow
(38.8570°N, 84.2291°W)
Time: 04:48:45
(UTC+00:00)

Tiangong - Pass Details

Date: 15 November 2025
Orbit: 384 x 397 km, 41.5° (Epoch: 08 December)

Event Time Altitude Azimuth Distance (km) Brightness Sun altitude
Rises 22:40:49 0° 283° (WNW) 2,286 2.9 -4.1°
Reaches altitude 10° 22:43:03 10° 272° (W) 1,423 2.1 -4.5°
Maximum altitude 22:45:55 30° 209° (SSW) 723 -0.1 -5.0°
Drops below altitude 10° 22:48:46 10° 145° (SE) 1,408 0.6 -5.5°
Enters shadow 22:53:06 -7° 130° (SE) 3,119 2.2 -6.3°
